[[{"header":{"parameterUnit":"m.s-1","parameterCategory":1,"la1":30.2991,"la2":30.254,"lo1":-89.0895,"lo2":-89.0444,"dy":0.0017,"dx":0.0017,"nx":28,"ny":28,"refTime":"2025-09-07T09:00:00:Z","depth":0,"parameterNumber":2,"parameterNumberName":"U-component_of_WINDS"},"data":[0,0,0,0,0,0,0,0,0,0,0,0,0,0,0,0,0,0,0,0,0,0,0,0,0,0,0,0,0,0,0,0,0,0,0,0,0,0,0,0,0,0,0,0,0,0,0,0,0,0,0,0,0,0,0,0,0,0,-2.5874,-2.5874,0,-2.5911,-2.5911,-2.5912,-2.5822,-2.5819,-2.5816,-2.5814,-2.5852,-2.5856,-2.586,0,0,0,0,0,0,0,0,0,0,0,0,0,-2.5726,-2.5729,-2.5874,-2.5874,-2.5875,-2.5911,-2.5911,-2.5912,-2.5823,-2.5819,-2.5816,-2.5813,-2.5851,-2.5855,-2.586,0,0,0,0,0,0,0,0,0,0,0,0,0,-2.5779,-2.573,-2.5874,-2.5835,-2.5831,-2.5911,-2.5911,-2.5912,-2.5823,-2.5819,-2.5815,-2.5811,-2.585,-2.5855,-2.586,-2.5979,0,0,-2.5877,-2.588,0,0,0,0,0,0,0,0,-2.5776,-2.5785,-2.584,-2.5837,-2.5834,-2.5857,-2.5873,-2.5935,-2.5824,-2.5827,-2.5814,-2.5809,-2.5858,-2.5862,-2.5878,-2.5981,-2.5983,-2.5878,-2.5881,-2.5883,-2.5885,0,0,0,0,0,0,0,-2.5773,-2.5783,-2.5888,-2.5841,-2.5837,-2.5815,-2.5818,-2.5884,-2.5865,-2.5826,-2.582,-2.5825,-2.5855,-2.5873,-2.5879,-2.5983,-2.5878,-2.5883,-2.5886,-2.5888,-2.6184,-2.6188,0,0,0,0,0,0,-2.5774,-2.578,-2.5887,-2.5889,-2.5794,-2.5821,-2.5824,-2.5854,-2.5864,-2.5862,-2.5829,-2.5821,-2.5866,-2.5872,-2.588,-2.6018,-2.5883,-2.5889,-2.5892,-2.6179,-2.6185,-2.619,0,0,0,0,0,0,-2.5771,-2.5785,-2.5886,-2.5833,-2.5844,-2.5828,-2.5863,-2.5857,-2.5875,-2.5866,-2.5863,-2.5851,-2.5863,-2.5872,-2.5955,-2.6018,-2.5891,-2.5896,-2.6174,-2.6181,-2.6187,-2.6297,0,0,0,0,0,0,-2.5767,-2.5784,-2.5829,-2.5835,-2.5848,-2.5961,-2.5866,-2.5861,-2.5885,-2.5875,-2.5886,-2.5884,-2.586,-2.5947,-2.596,-2.6023,-2.59,-2.6168,-2.6177,-2.6185,-2.6287,-2.6306,-2.6323,0,0,0,0,0,-2.5762,-2.5859,-2.5832,-2.5845,-2.5904,-2.5965,-2.5972,-2.5942,-2.589,-2.5935,-2.593,-2.5884,-2.6009,-2.5956,-2.597,-2.6036,-2.6164,-2.6174,-2.6184,-2.6279,-2.6303,-2.6322,0,0,0,0,0,0,-2.5862,-2.5859,-2.5829,-2.593,-2.5948,-2.5949,-2.6005,-2.5968,-2.6001,-2.5991,-2.5953,-2.5956,-2.6046,-2.6049,-2.599,-2.6151,-2.6078,-2.6091,-2.6145,-2.6167,-2.6184,-2.6181,-2.5905,0,0,0,0,0,-2.5896,-2.5945,-2.594,-2.603,-2.6041,-2.6022,-2.6047,-2.6023,-2.604,-2.6047,-2.6047,-2.6066,-2.6109,-2.6138,-2.6178,-2.6288,-2.6288,-2.634,-2.6357,-2.6372,-2.6384,-2.644,-2.6462,-2.6223,-2.6223,-2.6223,0,0,-2.5966,-2.597,-2.6004,-2.605,-2.6061,-2.6113,-2.6029,-2.6088,-2.6125,-2.6056,-2.6134,-2.6135,-2.6153,-2.6249,-2.6291,-2.6255,-2.645,-2.6385,-2.6397,-2.64,-2.6453,-2.6475,-2.6495,-2.623,-2.6229,-2.6228,0,0,-2.6119,-2.6129,-2.6204,-2.6216,-2.6234,-2.622,-2.6239,-2.6245,-2.6243,-2.632,-2.6269,-2.6313,-2.6389,-2.6404,-2.6421,-2.6579,-2.6538,-2.6594,-2.6686,-2.6741,-2.676,-2.6776,-2.6831,-2.6851,-2.6606,-2.6606,-2.6606,0,-2.6204,-2.628,-2.6247,-2.6309,-2.633,-2.627,-2.6345,-2.6359,-2.6389,-2.6404,-2.6363,-2.6456,-2.6464,-2.6562,-2.66,-2.6617,-2.6635,-2.6591,-2.676,-2.6776,-2.6791,-2.6842,-2.6863,-2.6612,-2.6612,-2.6611,-2.661,0,-2.6383,-2.6436,-2.6495,-2.6524,-2.6552,-2.6621,-2.6597,-2.663,-2.6603,-2.6594,-2.6673,-2.668,-2.6719,-2.6741,-2.6716,-2.6835,-2.6812,-2.6766,-2.6691,-2.682,-2.6868,-2.6888,-2.6622,-2.6619,-2.6617,-2.6616,0,0,-2.66,-2.6609,-2.6631,-2.6643,-2.6658,-2.6698,-2.6764,-2.6801,-2.6829,-2.6852,-2.6905,-2.697,-2.6927,-2.6947,-2.6923,-2.6972,-2.7094,-2.6919,-2.6919,-2.695,-2.7224,-2.7256,-2.728,-2.7067,-2.7071,-2.7074,-2.7221,0,-2.675,-2.6862,-2.6833,-2.6944,-2.6992,-2.6935,-2.6991,-2.7006,-2.7,-2.7039,-2.7032,-2.7078,-2.7019,-2.703,-2.7076,-2.707,-2.7148,-2.7059,-2.7115,-2.7117,-2.711,-2.7305,-2.734,-2.7479,-2.724,-2.7243,-2.7245,0,-2.694,-2.6969,-2.7084,-2.7089,-2.7109,-2.716,-2.7191,-2.7231,-2.7246,-2.7237,-2.7259,-2.7225,-2.7289,-2.7215,-2.7302,-2.7241,-2.7263,-2.7263,-2.7268,-2.727,-2.7188,-2.7311,-2.7523,-2.7543,-2.7275,-2.7273,-2.727,0,-2.7084,-2.7152,-2.7229,-2.7242,-2.725,-2.7287,-2.7293,-2.7304,-2.7328,-2.7356,-2.7371,-2.7406,-2.7425,-2.7453,-2.7429,-2.7378,-2.7519,-2.7443,-2.7512,-2.7513,-2.7543,-2.7541,-2.7759,-2.7561,-2.756,-2.756,-2.7559,0,-2.7254,-2.7326,-2.7294,-2.7341,-2.742,-2.7387,-2.7466,-2.7465,-2.7475,-2.7521,-2.7474,-2.7518,-2.7485,-2.7526,-2.7508,-2.7581,-2.759,-2.7584,-2.7578,-2.7587,-2.7588,-2.7599,-2.7588,-2.7565,-2.7564,-2.7563,-2.7562,0,-2.7427,-2.7409,-2.7489,-2.749,-2.7492,-2.755,-2.7551,-2.7594,-2.7584,-2.7642,-2.7654,-2.7638,-2.7684,-2.7663,-2.7711,-2.7699,-2.7792,-2.7774,-2.7786,-2.7781,-2.785,-2.7843,-2.8081,-2.8109,-2.7896,-2.7898,-2.7899,0,-2.7536,-2.759,-2.7596,-2.7623,-2.7632,-2.7676,-2.77,-2.767,-2.7696,-2.7717,-2.7758,-2.7799,-2.783,-2.7906,-2.7898,-2.7934,-2.7915,-2.7997,-2.7921,-2.7927,-2.7914,-2.791,-2.7914,-2.8011,-2.8014,-2.8016,-2.8017,0,-2.7729,-2.7717,-2.7753,-2.7786,-2.7816,-2.7841,-2.7861,-2.7886,-2.7856,-2.7889,-2.7934,-2.7958,-2.8007,-2.8048,-2.8079,-2.8084,-2.8046,-2.8042,-2.8059,-2.8067,-2.8071,-2.8067,-2.7825,-2.8036,-2.8034,-2.8033,-2.8032,-2.8031,-2.7871,-2.7916,-2.7927,-2.7968,-2.7981,-2.8001,-2.8041,-2.8036,-2.8073,-2.8109,-2.809,-2.8142,-2.8155,-2.8193,-2.8203,-2.8243,-2.8211,-2.8237,-2.8243,-2.8249,-2.8257,-2.8067,-2.825,-2.8249,-2.8248,-2.8248,-2.8248,0,-2.806,-2.8064,-2.8103,-2.8133,-2.8165,-2.8127,-2.8147,-2.8176,-2.8223,-2.8239,-2.827,-2.8321,-2.8361,-2.8356,-2.8392,-2.8425,-2.8408,-2.8435,-2.8431,-2.8432,-2.8285,-2.8265,-2.8448,-2.8448,-2.8448,-2.8448,-2.8448,-2.8448,-2.8162,-2.8234,-2.8224,-2.8301,-2.8305,-2.8356,-2.837,-2.8388,-2.84,-2.8459,-2.8492,-2.8488,-2.8495,-2.8531,-2.8565,-2.8563,-2.8577,-2.861,-2.8601,-2.8463,-2.8443,-2.8424,-2.8405,-2.8614,-2.8614,-2.8744,-2.8745,-2.8746]},{"header":{"parameterUnit":"m.s-1","parameterCategory":1,"la1":30.2991,"la2":30.254,"lo1":-89.0895,"lo2":-89.0444,"dy":0.0017,"dx":0.0017,"nx":28,"ny":28,"refTime":"2025-09-07T09:00:00:Z","depth":0,"parameterNumber":3,"parameterNumberName":"V-component_of_WINDS"},"data":[0,0,0,0,0,0,0,0,0,0,0,0,0,0,0,0,0,0,0,0,0,0,0,0,0,0,0,0,0,0,0,0,0,0,0,0,0,0,0,0,0,0,0,0,0,0,0,0,0,0,0,0,0,0,0,0,0,0,-5.0512,-5.0511,0,-5.0368,-5.0366,-5.0365,-5.0247,-5.0246,-5.0244,-5.0243,-5.0091,-5.0088,-5.0085,0,0,0,0,0,0,0,0,0,0,0,0,0,-5.0679,-5.0676,-5.0512,-5.0511,-5.0509,-5.0368,-5.0366,-5.0364,-5.0247,-5.0246,-5.0244,-5.0243,-5.0092,-5.0089,-5.0085,0,0,0,0,0,0,0,0,0,0,0,0,0,-5.0578,-5.0676,-5.0513,-5.0433,-5.0425,-5.0369,-5.0366,-5.0364,-5.0247,-5.0246,-5.0244,-5.0242,-5.0093,-5.0089,-5.0085,-5.0094,0,0,-5.0071,-5.0069,0,0,0,0,0,0,0,0,-5.0584,-5.0572,-5.0447,-5.0439,-5.0429,-5.0324,-5.0369,-5.0273,-5.0248,-5.0315,-5.0243,-5.0241,-5.017,-5.0159,-5.0136,-5.0087,-5.008,-5.0071,-5.0068,-5.0066,-5.0065,0,0,0,0,0,0,0,-5.0591,-5.0577,-5.0455,-5.0445,-5.0434,-5.0402,-5.0386,-5.035,-5.0254,-5.0309,-5.03,-5.0285,-5.0164,-5.014,-5.0131,-5.0078,-5.0071,-5.0067,-5.0064,-5.0063,-5.0022,-5.0023,0,0,0,0,0,0,-5.0611,-5.0584,-5.046,-5.0451,-5.0504,-5.0401,-5.0383,-5.0359,-5.0254,-5.0236,-5.0286,-5.028,-5.0148,-5.0136,-5.0125,-5.0124,-5.0066,-5.0062,-5.006,-5.002,-5.0022,-5.0024,0,0,0,0,0,0,-5.0615,-5.0601,-5.0465,-5.0515,-5.0495,-5.04,-5.0375,-5.0357,-5.0333,-5.0237,-5.0219,-5.028,-5.0147,-5.0132,-5.0101,-5.0118,-5.006,-5.0056,-5.0019,-5.0021,-5.0023,-5.0126,0,0,0,0,0,0,-5.062,-5.0603,-5.0608,-5.0516,-5.0493,-5.0447,-5.0376,-5.0356,-5.0326,-5.0316,-5.0226,-5.0209,-5.0144,-5.0108,-5.0097,-5.0111,-5.0053,-5.0017,-5.002,-5.0022,-5.0121,-5.0132,-5.0141,0,0,0,0,0,-5.0627,-5.0643,-5.0609,-5.0594,-5.0497,-5.0448,-5.0435,-5.036,-5.0328,-5.033,-5.0268,-5.0212,-5.0118,-5.0106,-5.0092,-5.0105,-5.0015,-5.0019,-5.0022,-5.0116,-5.013,-5.0141,0,0,0,0,0,0,-5.0739,-5.063,-5.0591,-5.0578,-5.0523,-5.0428,-5.0429,-5.0378,-5.033,-5.0322,-5.0231,-5.0211,-5.019,-5.0144,-5.0133,-5.0105,-5.0059,-5.006,-5.0135,-5.0147,-5.0157,-5.0167,-5.0049,0,0,0,0,0,-5.0763,-5.0734,-5.0639,-5.0637,-5.0612,-5.0526,-5.0501,-5.0449,-5.0387,-5.0363,-5.0299,-5.024,-5.0196,-5.0169,-5.0125,-5.0114,-5.0089,-5.0115,-5.0125,-5.0134,-5.0135,-5.012,-5.0129,-5.0035,-5.0035,-5.0035,0,0,-5.0811,-5.0748,-5.0735,-5.0658,-5.0609,-5.0578,-5.0507,-5.0479,-5.0453,-5.0358,-5.0325,-5.0275,-5.0203,-5.0181,-5.0168,-5.0143,-5.0156,-5.0139,-5.0146,-5.0142,-5.0125,-5.0134,-5.0142,-5.0038,-5.0037,-5.0037,0,0,-5.0882,-5.0833,-5.0824,-5.0776,-5.0703,-5.0645,-5.0642,-5.0554,-5.0517,-5.0483,-5.0409,-5.0377,-5.0306,-5.0255,-5.022,-5.0267,-5.0212,-5.0255,-5.0307,-5.0294,-5.0301,-5.0307,-5.0319,-5.0325,-5.0257,-5.0257,-5.0257,0,-5.0951,-5.0903,-5.0825,-5.08,-5.0766,-5.0679,-5.0666,-5.0623,-5.0539,-5.0516,-5.0489,-5.0393,-5.0339,-5.0301,-5.0312,-5.0289,-5.0279,-5.0264,-5.0307,-5.0312,-5.0316,-5.0327,-5.0332,-5.0263,-5.0262,-5.0261,-5.0261,0,-5.0988,-5.0957,-5.0957,-5.0878,-5.0844,-5.0826,-5.0741,-5.0716,-5.0665,-5.0609,-5.0571,-5.0502,-5.0439,-5.0427,-5.0378,-5.038,-5.0366,-5.0325,-5.0276,-5.0332,-5.034,-5.0344,-5.027,-5.0268,-5.0267,-5.0265,0,0,-5.1128,-5.1003,-5.1004,-5.0965,-5.0876,-5.0848,-5.0823,-5.0762,-5.074,-5.0684,-5.0657,-5.0597,-5.0556,-5.0516,-5.046,-5.0449,-5.0483,-5.0407,-5.0403,-5.042,-5.0476,-5.0506,-5.0513,-5.0447,-5.0448,-5.0448,-5.0481,0,-5.1182,-5.1134,-5.1061,-5.1036,-5.1002,-5.0917,-5.0894,-5.0835,-5.0781,-5.0742,-5.0681,-5.0637,-5.0589,-5.0564,-5.0549,-5.0483,-5.0493,-5.048,-5.0417,-5.0416,-5.0436,-5.0517,-5.055,-5.0584,-5.0484,-5.0484,-5.0485,0,-5.1239,-5.1187,-5.1159,-5.1068,-5.1051,-5.1033,-5.0968,-5.0933,-5.0862,-5.0823,-5.0777,-5.0715,-5.0679,-5.0637,-5.0584,-5.0576,-5.0546,-5.0509,-5.0508,-5.0498,-5.0453,-5.0505,-5.0594,-5.0598,-5.049,-5.0489,-5.0489,0,-5.1338,-5.1261,-5.1233,-5.1202,-5.1097,-5.1085,-5.104,-5.0968,-5.0934,-5.0876,-5.0852,-5.0792,-5.0758,-5.071,-5.0631,-5.0609,-5.0585,-5.0537,-5.0547,-5.0549,-5.0545,-5.0546,-5.0627,-5.0531,-5.0531,-5.0531,-5.0531,0,-5.1404,-5.1389,-5.1275,-5.1258,-5.1237,-5.1151,-5.1131,-5.1078,-5.1014,-5.0981,-5.0904,-5.0874,-5.0774,-5.0731,-5.0669,-5.0631,-5.0617,-5.0581,-5.0564,-5.0587,-5.0591,-5.0564,-5.0558,-5.0532,-5.0532,-5.0532,-5.0532,0,-5.1511,-5.1435,-5.1397,-5.13,-5.1275,-5.1263,-5.1178,-5.1155,-5.1095,-5.1055,-5.104,-5.0945,-5.089,-5.0807,-5.0728,-5.0685,-5.0656,-5.0631,-5.0681,-5.067,-5.0683,-5.0682,-5.0747,-5.0749,-5.0657,-5.0658,-5.0659,0,-5.1557,-5.1543,-5.1444,-5.1417,-5.1375,-5.1333,-5.1298,-5.1212,-5.1177,-5.1093,-5.1079,-5.1019,-5.0966,-5.0881,-5.0803,-5.074,-5.071,-5.0737,-5.07,-5.0721,-5.0705,-5.0705,-5.0701,-5.0745,-5.0747,-5.0748,-5.0749,0,-5.1645,-5.1607,-5.1561,-5.15,-5.146,-5.1407,-5.135,-5.1332,-5.1232,-5.1197,-5.1141,-5.1099,-5.1017,-5.0955,-5.0881,-5.083,-5.0771,-5.0761,-5.0759,-5.0781,-5.0808,-5.0789,-5.0701,-5.076,-5.0759,-5.0758,-5.0757,-5.0757,-5.172,-5.1702,-5.1628,-5.1577,-5.1525,-5.1473,-5.1446,-5.1382,-5.1334,-5.1261,-5.1212,-5.1157,-5.108,-5.0974,-5.0926,-5.0879,-5.0854,-5.0853,-5.0852,-5.0852,-5.0858,-5.0818,-5.0865,-5.0865,-5.0864,-5.0864,-5.0864,0,-5.1801,-5.1748,-5.1703,-5.1625,-5.1584,-5.1534,-5.1467,-5.1435,-5.1388,-5.1323,-5.1271,-5.1203,-5.1142,-5.1058,-5.099,-5.0967,-5.0938,-5.0952,-5.0951,-5.0939,-5.0886,-5.0893,-5.0976,-5.0976,-5.0976,-5.0976,-5.0976,-5.0976,-5.1838,-5.1803,-5.1756,-5.1692,-5.1639,-5.1586,-5.1551,-5.15,-5.1447,-5.1376,-5.1325,-5.1271,-5.1196,-5.1121,-5.1061,-5.1037,-5.1013,-5.1035,-5.1003,-5.0954,-5.0944,-5.0934,-5.0939,-5.1032,-5.1032,-5.1059,-5.1059,-5.106]}]]